Find Amateru 4

NORAD ID: 60542 Int'l Des: 2024-149 Owner: QPS Country: J operational
LEOCIRCULARRETROGRADESSO

リアルタイム位置

3D地球を読み込み中...

Amateru 4について

説明を読み込み中...

次回通過

Passes for default location (London). Set your location on the main map for personalized predictions.

高度履歴

Loading altitude history...

軌道要素

1 60542U 24149CC 26107.17718275 .00003608 00000-0 26901-3 0 9999
2 60542 97.6661 186.8662 0002521 328.8522 31.2554 15.03507865 91102
Epoch: Apr 17, 2026 • Age: 9 hours

現在のステータス

高度 560.3 km
速度 7.58 km/s
衛星直下点 3.76°N, 33.24°W
打ち上げ日 Aug 16, 2024
運用期間 1.6 years
タイプ other

技術仕様

分類 Payload
質量 120.00 kg
乾燥質量 100.00 kg
総質量 120.00 kg
長さ 0.60 m
直径 0.80 m
スパン 3.60 m
形状 Hex Cyl + 2 Pan + Dish
製造者 QPS
バスタイプ QSAT
フェーズステータス In Orbit
所有者/国 QPS/J

Most Searched